Weather in Bolshoe Ignatovo

Russia / Republic of Mordovia     55°00′58″N   45°34′20″E
temp.,
°C
wind,
m/s
gust,
m/s
humid.,
%
clouds,
%
prec.,
mm/h
press.,
hPa
HPBL,
m
16 september, thu
thu1600:00+8wnw5988100 0.3 1010526
03:00+8wnw4790100 0.3 1010552
06:00+7nw3594100 0.8 1011411
09:00+9nnw567266 1.0 1012963
12:00+10nnw5654100 0.0 10141531
15:00+9nnw5754100 0.0 10151532
18:00+8nnw5856100 0.0 10151214
21:00+8nnw5752100 0.0 1016745
17 september, fri
fri1700:00+7nw3654100 0.0 1016399
03:00+7wnw4758100 0.0 1017456
06:00+6wnw4763100 0.0 1017481
09:00+7nw456398 0.0 1017991
12:00+9wnw3452100 0.3 10171417
15:00+9nw3451100 0.4 10171391
18:00+7nnw366299 0.2 1017321
21:00+4nnw237015 0.2 101849
18 september, sat
sat1800:00+2wnw22725 0.0 101934
03:00+1nw34835 0.0 102072
06:000nw24955 0.0 102294
09:00+5n4773100 0.0 1022681
12:00+6n4567100 0.0 1023811
15:00+8n4555100 0.0 10231441
18:00+7nne3659100 0.0 1024355
21:00+3nnw22745 0.0 102511
19 september, sun
sun1900:00+2nne227593 0.0 102613
03:00+1nne2276100 0.0 102612
06:000n2279100 0.0 102712
09:00+6ne23598 0.0 1027492
12:00+9ne2244100 0.0 10271125
15:00+10ne3340100 0.0 10251116
18:00+7ene3350100 0.0 102543
21:00+5ene3556100 0.0 102687
20 september, mon
mon2000:00+4e3759100 0.0 1026139
03:00+4e4857100 0.0 1026232
06:00+4e41059100 0.0 1026315
09:00+7ese61057100 0.0 1026668
12:00+8ese6957100 0.1 1026984
15:00+6ese61073100 0.4 1026874
18:00+5e61282100 0.7 1026744
21:00+6e61275100 0.8 1026696